Skip Page Navigation
NASA JPL Caltech
NASA Logo - Jet Propulsion Laboratory + View the NASA Portal
+ Center for Near-Earth Object Studies
JPL Home Earth Solar System Stars & Galaxies Technology
JPL Solar System Dynamics
BODIES ORBITS EPHEMERIDES TOOLS PHYSICAL DATA DISCOVERY FAQ SITE MAP
JPL Small-Body Database Browser
Search: [ help ]  
243807 (2000 SR176)
Classification: Main-belt Asteroid          SPK-ID: 2243807
Ephemeris | Orbit Diagram | Orbital Elements | Mission Design | Physical Parameters | Discovery Circumstances ]

[ show orbit diagram ]
Orbital Elements at Epoch 2459000.5 (2020-May-31.0) TDB
Reference: JPL 13 (heliocentric ecliptic J2000)
 Element Value Uncertainty (1-sigma)   Units 
e .1612596694212398 5.3332e-08  
a 2.386703370489061 1.69e-08 au
q 2.001824373957437 1.2458e-07 au
i 6.184958668448157 5.5007e-06 deg
node 325.1483730532441 4.616e-05 deg
peri 26.37957975045139 4.958e-05 deg
M 145.1143101171809 2.1673e-05 deg
tp 2458457.620006322518
(2018-Dec-05.12000632)
7.7617e-05 TDB
period 1346.778257541084
3.69
1.4305e-05
3.916e-08
d
yr
n .2673045826098198 2.8392e-09 deg/d
Q 2.771582367020686 1.9626e-08 au
  Orbit Determination Parameters
   # obs. used (total)      340  
   data-arc span      7067 days (19.35 yr)  
   first obs. used      2000-09-28  
   last obs. used      2020-02-03  
   planetary ephem.      DE431  
   SB-pert. ephem.      SB431-N16  
   condition code      0  
   norm. resid. RMS      .57777  
   source      ORB  
   producer      Otto Matic  
   solution date      2020-Feb-25 09:25:22  

Additional Information
 Earth MOID = .997764 au 
 Jupiter MOID = 2.65264 au 
 T_jup = 3.509 
[ show covariance matrix ]

Ephemeris | Orbit Diagram | Orbital Elements | Mission Design | Physical Parameters | Discovery Circumstances ]

Physical Parameter Table
Parameter Symbol Value Units Sigma Reference Notes
absolute magnitude H 16.5   n/a MPO450093  

243807 (2000 SR176)          Discovered 2000-Sep-28 by LINEAR at Socorro
Reference: 20100726/Numbers.arcLast Updated: 2010-07-28
Ephemeris | Orbit Diagram | Orbital Elements | Mission Design | Physical Parameters | Discovery Circumstances ]
ABOUT SSD CREDITS/AWARDS PRIVACY/COPYRIGHT GLOSSARY LINKS
FirstGov 2020-Aug-06 08:33 UT
(server date/time)  
NASA Home Page
Site Manager:   Ryan S. Park
Webmaster  Alan B. Chamberlin